Torna al catalogo

STARLINK-4524

AttivoComunicazioniVLEO
NORAD 53396·PAYLOAD·🇺🇸 United States

Lanciato Aug 10, 2022 da Cape Canaveral Space Force Station

Loading…

Prossimi Passaggi (prossime 24 ore)

TLE

AggiornatoSource: CelesTrak SupGP

Epoca: Sep 15, 2026, 01:58 UTC

1 53396C 22097J   26258.08243056  .00034945  00000+0  99985-3 0  2582
2 53396  53.1592 347.7953 0001597  90.0165 290.1576 15.35379059    12

Traccia STARLINK-4524 in tempo reale con AllMySat

Download on the App Store